Trinity Center, CA

1:14 PM PST on February 21, 2018 (GMT -0800)
Trinity Center

Weather History for KO86 - October, 2012

Change the Weather History Date:

Wednesday, October 17, 2012

  Actual Average (KMHS) Record (KMHS)
Temperature  
Mean Temperature 60 °F -  
Max Temperature 82 °F 63 °F 84 °F (1955)
Min Temperature 37 °F 34 °F 25 °F (1996)
Degree Days  
Heating Degree Days 6    
Growing Degree Days 10 (Base 50)    
Moisture  
Dew Point 27 °F    
Average Humidity 37    
Maximum Humidity 62    
Minimum Humidity 8    
Precipitation  
Precipitation 0.00 in - - ()
Sea Level Pressure  
Sea Level Pressure 30.13 in    
Wind  
Wind Speed 4 mph ()    
Max Wind Speed 10 mph    
Max Gust Speed 17 mph    
Visibility 10.0 miles    
Events      
Averages and records for this station are not official NWS values.
T = Trace of Precipitation, MM = Missing Value Source: Averaged Metar Reports

Daily Weather History Graph

Daily Weather History Graph

Search for Another Location

Airport or City:

Trip Planner

Search our weather history database for the weather conditions in past years. The results will help you decide how hot, cold, wet, or windy it might be!

Date:

Astronomy

Oct. 17, 2012 Rise Set
Actual Time 7:25 AM PDT 6:26 PM PDT
Civil Twilight 6:57 AM PDT 6:54 PM PDT
Nautical Twilight 6:25 AM PDT 7:25 PM PDT
Astronomical Twilight 5:53 AM PDT 7:57 PM PDT
Moon 10:07 AM PDT (10/17) 8:05 PM PDT (10/17)
Length of Visible Light 11h 56m
Length of Day
11h 01m
Waxing Crescent, 8% of the Moon is Illuminated
Oct 17
Waxing Crescent
Oct 21
First Quarter
Oct 29
Full
Nov 6
Last Quarter
Nov 13
New

Hourly Weather History & Observations

Time (PDT) Temp. Windchill Dew Point Humidity Pressure Visibility Wind Dir Wind Speed Gust Speed Precip Events Conditions
12:10 AM 55.4 °F - 32.0 °F 41% 30.18 in 10.0 mi NNE 10.4 mph 17.3 mph N/A   Clear
12:30 AM 53.6 °F - 30.2 °F 41% 30.18 in 10.0 mi WNW 4.6 mph - N/A   Clear
12:50 AM 48.2 °F - 28.4 °F 46% 30.19 in 10.0 mi West 5.8 mph - N/A   Clear
1:10 AM 46.4 °F 42.9 °F 26.6 °F 46% 30.19 in 10.0 mi West 6.9 mph - N/A   Clear
1:30 AM 46.4 °F - 26.6 °F 46% 30.19 in 10.0 mi Calm Calm - N/A   Clear
1:50 AM 44.6 °F 42.2 °F 26.6 °F 49% 30.19 in 10.0 mi SW 4.6 mph - N/A   Clear
2:10 AM 44.6 °F - 26.6 °F 49% 30.19 in 10.0 mi Calm Calm - N/A   Clear
3:10 AM 41.0 °F 38.0 °F 26.6 °F 57% 30.19 in 10.0 mi WSW 4.6 mph - N/A   Clear
3:30 AM 41.0 °F 37.1 °F 26.6 °F 57% 30.18 in 10.0 mi West 5.8 mph - N/A   Clear
3:50 AM 41.0 °F 37.1 °F 26.6 °F 57% 30.18 in 10.0 mi West 5.8 mph - N/A   Clear
4:10 AM 41.0 °F 37.1 °F 24.8 °F 53% 30.18 in 10.0 mi WSW 5.8 mph - N/A   Clear
4:30 AM 39.2 °F 35.0 °F 24.8 °F 56% 30.18 in 10.0 mi WSW 5.8 mph - N/A   Clear
4:50 AM 41.0 °F 37.1 °F 24.8 °F 53% 30.18 in 10.0 mi West 5.8 mph - N/A   Clear
5:10 AM 39.2 °F 34.2 °F 24.8 °F 56% 30.18 in 10.0 mi West 6.9 mph - N/A   Clear
5:30 AM 39.2 °F 35.0 °F 24.8 °F 56% 30.18 in 10.0 mi West 5.8 mph - N/A   Clear
5:50 AM 39.2 °F 35.0 °F 23.0 °F 52% 30.18 in 10.0 mi West 5.8 mph - N/A   Clear
6:10 AM 39.2 °F 35.9 °F 23.0 °F 52% 30.18 in 10.0 mi West 4.6 mph - N/A   Clear
6:30 AM 37.4 °F 32.8 °F 23.0 °F 56% 30.18 in 10.0 mi West 5.8 mph - N/A   Clear
7:10 AM 37.4 °F 32.8 °F 24.8 °F 60% 30.18 in 10.0 mi West 5.8 mph - N/A   Clear
7:30 AM 39.2 °F 35.0 °F 23.0 °F 52% 30.18 in 10.0 mi West 5.8 mph - N/A   Clear
7:50 AM 37.4 °F 33.8 °F 24.8 °F 60% 30.18 in 10.0 mi West 4.6 mph - N/A   Clear
8:10 AM 39.2 °F 37.0 °F 24.8 °F 56% 30.19 in 10.0 mi West 3.5 mph - N/A   Clear
8:30 AM 42.8 °F 41.1 °F 26.6 °F 53% 30.19 in 10.0 mi West 3.5 mph - N/A   Clear
9:30 AM 48.2 °F - 33.8 °F 58% 30.19 in 10.0 mi Calm Calm - N/A   Clear
9:50 AM 50.0 °F - 35.6 °F 58% 30.18 in 10.0 mi Calm Calm - N/A   Clear
10:10 AM 50.0 °F - 37.4 °F 62% 30.18 in 10.0 mi Calm Calm - N/A   Clear
10:30 AM 53.6 °F - 35.6 °F 51% 30.18 in 10.0 mi SSE 3.5 mph - N/A   Clear
10:50 AM 55.4 °F - 32.0 °F 41% 30.17 in 10.0 mi SSE 3.5 mph - N/A   Clear
11:10 AM 57.2 °F - 35.6 °F 44% 30.16 in 10.0 mi SSE 3.5 mph - N/A   Clear
11:30 AM 59.0 °F - 32.0 °F 36% 30.15 in 10.0 mi SE 3.5 mph - N/A   Clear
11:50 AM 59.0 °F - 33.8 °F 39% 30.15 in 10.0 mi Calm Calm - N/A   Clear
12:10 PM 62.6 °F - 37.4 °F 39% 30.14 in 10.0 mi SSE 3.5 mph - N/A   Clear
12:30 PM 64.4 °F - 35.6 °F 34% 30.13 in 10.0 mi ESE 3.5 mph - N/A   Clear
12:50 PM 66.2 °F - 32.0 °F 28% 30.12 in 10.0 mi SSE 4.6 mph - N/A   Clear
1:10 PM 69.8 °F - 33.8 °F 27% 30.11 in 10.0 mi SE 4.6 mph - N/A   Clear
1:30 PM 71.6 °F - 32.0 °F 23% 30.10 in 10.0 mi SE 4.6 mph - N/A   Clear
1:50 PM 73.4 °F - 32.0 °F 22% 30.08 in 10.0 mi SSE 5.8 mph - N/A   Clear
2:10 PM 75.2 °F - 30.2 °F 19% 30.07 in 10.0 mi SE 4.6 mph - N/A   Clear
2:30 PM 77.0 °F - 32.0 °F 19% 30.06 in 10.0 mi SSE 6.9 mph - N/A   Clear
3:10 PM 77.0 °F - 33.8 °F 21% 30.05 in 10.0 mi SSE 6.9 mph - N/A   Clear
3:30 PM 80.6 °F - 26.6 °F 14% 30.05 in 10.0 mi South 3.5 mph - N/A   Clear
3:50 PM 80.6 °F - 26.6 °F 14% 30.05 in 10.0 mi SSE 4.6 mph - N/A   Clear
4:10 PM 80.6 °F - 23.0 °F 12% 30.05 in 10.0 mi NNE 3.5 mph - N/A   Clear
4:30 PM 82.4 °F - 14.0 °F 8% 30.05 in 10.0 mi NNW 6.9 mph - N/A   Clear
4:50 PM 82.4 °F - 14.0 °F 8% 30.05 in 10.0 mi North 6.9 mph - N/A   Clear
5:10 PM 80.6 °F - 14.0 °F 8% 30.05 in 10.0 mi NNW 9.2 mph 16.1 mph N/A   Clear
5:30 PM 80.6 °F - 14.0 °F 8% 30.05 in 10.0 mi NNW 5.8 mph - N/A   Clear
5:50 PM 75.2 °F - 17.6 °F 11% 30.06 in 10.0 mi NNW 3.5 mph - N/A   Clear
6:10 PM 71.6 °F - 19.4 °F 14% 30.06 in 10.0 mi WNW 4.6 mph - N/A   Clear
6:30 PM 68.0 °F - 21.2 °F 17% 30.07 in 10.0 mi Calm Calm - N/A   Clear
6:50 PM 64.4 °F - 24.8 °F 22% 30.07 in 10.0 mi Calm Calm - N/A   Clear
7:10 PM 62.6 °F - 24.8 °F 24% 30.08 in 10.0 mi WSW 3.5 mph - N/A   Clear
7:30 PM 60.8 °F - 26.6 °F 27% 30.10 in 10.0 mi West 3.5 mph - N/A   Clear
7:50 PM 62.6 °F - 24.8 °F 24% 30.10 in 10.0 mi Calm Calm - N/A   Clear
8:10 PM 57.2 °F - 26.6 °F 31% 30.11 in 10.0 mi SW 4.6 mph - N/A   Clear
8:30 PM 55.4 °F - 28.4 °F 36% 30.11 in 10.0 mi Calm Calm - N/A   Clear
8:50 PM 59.0 °F - 26.6 °F 29% 30.11 in 10.0 mi SE 3.5 mph - N/A   Clear
9:10 PM 62.6 °F - 24.8 °F 24% 30.12 in 10.0 mi ENE 5.8 mph - N/A   Clear
9:30 PM 57.2 °F - 26.6 °F 31% 30.12 in 10.0 mi Calm Calm - N/A   Clear
9:50 PM 57.2 °F - 24.8 °F 29% 30.12 in 10.0 mi SE 3.5 mph - N/A   Clear
10:10 PM 59.0 °F - 23.0 °F 25% 30.13 in 10.0 mi Calm Calm - N/A   Clear
10:30 PM 55.4 °F - 26.6 °F 33% 30.13 in 10.0 mi SW 5.8 mph - N/A   Clear
10:50 PM 50.0 °F - 26.6 °F 40% 30.14 in 10.0 mi West 5.8 mph - N/A   Clear
11:10 PM 50.0 °F - 26.6 °F 40% 30.14 in 10.0 mi West 4.6 mph - N/A   Clear
11:30 PM 50.0 °F - 26.6 °F 40% 30.14 in 10.0 mi WNW 3.5 mph - N/A   Clear
11:50 PM 50.0 °F - 28.4 °F 43% 30.14 in 10.0 mi West 4.6 mph - N/A   Clear